TimePDT,TemperatureF,Dew PointF,Humidity,Sea Level PressureIn,VisibilityMPH,Wind Direction,Wind SpeedMPH,Gust SpeedMPH,PrecipitationIn,Events,Conditions,WindDirDegrees,DateUTC
12:55 AM,57.9,42.1,56,29.95,10.0,WNW,15.0,-,N/A,,Clear,300,2013-10-03 07:55:00
1:55 AM,59.0,39.0,48,29.98,10.0,WNW,11.5,-,N/A,,Clear,300,2013-10-03 08:55:00
2:55 AM,57.9,37.0,46,29.98,10.0,NW,13.8,-,N/A,,Clear,310,2013-10-03 09:55:00
3:55 AM,57.0,36.0,45,29.99,10.0,NW,15.0,-,N/A,,Clear,310,2013-10-03 10:55:00
4:55 AM,55.9,37.0,49,30.00,10.0,NW,10.4,-,N/A,,Clear,320,2013-10-03 11:55:00
5:55 AM,55.0,37.0,51,30.00,10.0,NW,10.4,-,N/A,,Clear,310,2013-10-03 12:55:00
6:55 AM,54.0,37.0,53,30.01,10.0,NW,11.5,-,N/A,,Clear,310,2013-10-03 13:55:00
7:55 AM,55.9,37.9,51,30.03,10.0,NW,10.4,-,N/A,,Clear,310,2013-10-03 14:55:00
8:55 AM,60.1,37.0,42,30.03,10.0,NNW,16.1,23.0,N/A,,Clear,330,2013-10-03 15:55:00
9:55 AM,64.0,35.1,34,30.04,5.0,NNW,19.6,28.8,N/A,,Haze,340,2013-10-03 16:55:00
10:55 AM,66.0,34.0,30,30.03,7.0,NNW,23.0,29.9,N/A,,Clear,330,2013-10-03 17:55:00
11:55 AM,69.1,34.0,27,30.01,5.0,NW,24.2,28.8,N/A,,Haze,320,2013-10-03 18:55:00
12:55 PM,72.0,33.1,24,29.99,6.0,NNW,20.7,28.8,N/A,,Haze,330,2013-10-03 19:55:00
1:55 PM,73.0,30.9,21,29.96,7.0,NNW,17.3,27.6,N/A,,Clear,330,2013-10-03 20:55:00
2:55 PM,75.0,30.9,20,29.94,7.0,NW,21.9,32.2,N/A,,Clear,320,2013-10-03 21:55:00
3:55 PM,75.9,28.9,18,29.91,7.0,NNW,24.2,29.9,N/A,,Clear,340,2013-10-03 22:55:00
4:55 PM,75.0,28.9,18,29.91,6.0,NNW,17.3,27.6,N/A,,Haze,340,2013-10-03 23:55:00
5:55 PM,73.0,28.9,20,29.90,7.0,NW,19.6,-,N/A,,Clear,320,2013-10-04 00:55:00
6:55 PM,70.0,28.9,22,29.89,8.0,NNW,21.9,-,N/A,,Clear,330,2013-10-04 01:55:00
7:55 PM,69.1,28.0,22,29.88,8.0,NNW,25.3,33.4,N/A,,Clear,330,2013-10-04 02:55:00
9:55 PM,66.0,24.1,20,29.89,10.0,NNW,19.6,-,N/A,,Clear,340,2013-10-04 04:55:00
10:55 PM,64.9,24.1,21,29.91,10.0,NNW,18.4,-,N/A,,Clear,330,2013-10-04 05:55:00
11:55 PM,63.0,23.0,22,29.92,10.0,NNW,15.0,-,N/A,,Clear,340,2013-10-04 06:55:00